SB KEPS @ AMSAT $ORB11237.N 2Line Orbital Elements 11237.AMSAT
HR AMSAT ORBITAL ELEMENTS FOR AMATEUR SATELLITES IN NASA FORMAT FROM WA5QGD FORT WORTH,TX August 25, 2011 Send Subscribe/unsubscribe to KEPS at http://www.amsat.org/mailman/listinfo/keps BID: ORB11237.N
DECODE 2-LINE ELSETS WITH THE FOLLOWING KEY: 1 AAAAAU 00 0 0 BBBBB.BBBBBBBB .CCCCCCCC 00000-0 00000-0 0 DDDZ 2 AAAAA EEE.EEEE FFF.FFFF GGGGGGG HHH.HHHH III.IIII JJ.JJJJJJJJKKKKKZ KEY: A-CATALOGNUM B-EPOCHTIME C-DECAY D-ELSETNUM E-INCLINATION F-RAAN G-ECCENTRICITY H-ARGPERIGEE I-MNANOM J-MNMOTION K-ORBITNUM Z-CHECKSUM
TO ALL RADIO AMATEURS BT
AO-07 1 07530U 74089B 11237.58731306 -.00000027 00000-0 10000-3 0 1637 2 07530 101.3949 241.3950 0012009 142.2796 217.9118 12.53583583682885 FO-29 1 24278U 96046B 11237.57051987 -.00000035 00000-0 -24996-5 0 6479 2 24278 098.5573 012.3756 0351309 077.4666 286.5532 13.52964277741844 SO-33 1 25509U 98061B 11236.30598917 .00000192 00000-0 26803-4 0 00402 2 25509 031.4299 219.0298 0353549 117.4269 246.2737 14.28439884670028 RS-22 1 27939U 03042A 11237.75032254 .00000270 00000-0 60511-4 0 5702 2 27939 097.8395 088.3992 0014402 121.6593 238.6024 14.63628442422519 VO-52 1 28650U 05017B 11236.55261574 .00000625 00000-0 84419-4 0 08815 2 28650 097.6370 276.6072 0025806 299.2453 060.6203 14.82148330340873 SO-67 1 35870U 09049F 11237.29503758 .00001505 00000-0 70907-4 0 1572 2 35870 097.2750 278.3386 0003479 117.3492 304.5119 15.20991004107442 HO-68 1 36122U 09072B 11237.70986178 -.00000044 00000-0 00000 0 0 6807 2 36122 100.4091 297.4496 0007763 067.5860 292.6066 13.16287875 81386 UO-11 1 14781U 84021B 11236.76163648 .00000107 00000-0 21123-4 0 06471 2 14781 097.9974 293.2341 0007918 278.7803 081.2512 14.80016839475939 AO-16 1 20439U 90005D 11237.89802416 .00000040 00000-0 30869-4 0 2643 2 20439 098.3898 185.2042 0010649 322.0282 038.0147 14.31934741127590 LO-19 1 20442U 90005G 11236.91862833 .00000044 00000-0 31759-4 0 01998 2 20442 098.3522 188.3452 0011181 316.3832 043.6467 14.32159056127637 AO-27 1 22825U 93061C 11236.54194020 .00000008 00000-0 19924-4 0 08970 2 22825 098.5349 179.6005 0009326 075.7147 284.5077 14.29359134933951 IO-26 1 22826U 93061D 11236.87877614 .00000051 00000-0 36587-4 0 06525 2 22826 098.5285 180.3819 0010086 068.6549 291.5706 14.29622773934124 GO-32 1 25397U 98043D 11236.73943888 -.00000024 00000-0 73424-5 0 05632 2 25397 098.3323 225.6527 0002217 080.8162 279.3269 14.23215818681718 NO-44 1 26931U 01043C 11236.87891353 .00000208 00000-0 11323-3 0 08347 2 26931 067.0531 166.5255 0005586 254.9864 105.0618 14.29675648516743 SO-50 1 27607U 02058C 11236.69359009 .00000174 00000-0 48377-4 0 5486 2 27607 064.5576 119.4938 0078250 306.7345 052.6581 14.71795585466175 CO-55 1 27844U 03031E 11236.55595828 .00000089 00000-0 61534-4 0 01848 2 27844 098.7072 244.2676 0010230 006.6005 353.5322 14.20835220422620 CO-57 1 27848U 03031J 11236.01701432 .00000051 00000-0 44099-4 0 01333 2 27848 098.7148 242.9489 0010242 013.5098 346.6342 14.20611691422491 AO-51 1 28375U 04025K 11236.58646400 .00000046 00000-0 26663-4 0 530 2 28375 098.1046 211.4591 0082745 222.7722 136.7008 14.40774529375911 CP3 1 31129U 07012N 11237.79370093 .00000190 00000-0 54258-4 0 9525 2 31129 097.8963 257.9798 0100494 325.4589 034.0072 14.52543153230948 CO-65 1 32785U 08021C 11236.74116667 .00000598 00000-0 81740-4 0 00804 2 32785 097.8422 299.3041 0014129 316.8099 043.2038 14.82085212179695 PRISM 1 33493U 09002B 11237.78021597 .00000908 00000-0 12156-3 0 8989 2 33493 098.1324 007.4437 0019774 172.4447 187.7079 14.81855709139823 SOHLA-1 1 33496U 09002E 11236.95212697 .00000246 00000-0 49614-4 0 05053 2 33496 098.0854 346.1071 0005489 266.1866 093.8716 14.69646924138584 TISAT-1 1 36799U 10035E 11237.81178060 .00000525 00000-0 75264-4 0 1721 2 36799 098.0966 306.7374 0016450 055.2670 305.0079 14.80669811 60616 STUDSAT 1 36801U 10035G 11236.79879690 .00001398 00000-0 18765-3 0 02359 2 36801 098.1036 305.6289 0014545 046.6449 313.5970 14.80898215060451 OOREOS 1 37224U 10062C 11153.29456974 .00000492 00000-0 77478-4 0 01796 2 37224 071.9726 071.8135 0020315 307.7637 052.1684 14.77036357028673 FO-69 1 37227U 0 11236.21052771 .00000132 00000-0 26839-4 0 01157 2 37227 071.9679 249.2733 0016566 160.7113 199.4694 14.76627258019364 NANOSALD 1 37361U 0 11234.36059812 .00050508 00000-0 22718-2 0 03393 2 37361 071.9743 240.0921 0027476 261.0557 098.7859 15.20516870032111 FO-70 1 37380U 0 11236.23500000 .00000086 00000-0 20359-4 0 02523 2 37380 071.9713 249.4107 0017170 157.2901 202.9024 14.76392013040907 NOAA-10 1 16969U 86073A 11236.69161909 -.00000012 00000-0 13032-4 0 06184 2 16969 098.6157 265.5357 0012811 028.5737 331.6142 14.27473092297420 NOAA-11 1 19531U 88089A 11236.72330542 .00000165 00000-0 10790-3 0 06125 2 19531 098.7501 322.8851 0011220 357.1980 002.9136 14.14921997182446 NOAA-12 1 21263U 91032A 11236.93261274 .00000029 00000-0 31215-4 0 01186 2 21263 098.7510 254.6545 0012493 351.8459 008.2515 14.25732523054207 MET-3/5 1 21655U 91056A 11236.73345603 .00000051 00000-0 10000-3 0 01929 2 21655 082.5598 002.3361 0013129 352.2279 007.8608 13.17027924962742 MET-2/21 1 22782U 93055A 11236.59195404 .00000033 00000-0 16229-4 0 01861 2 22782 082.5456 268.6088 0020859 267.1090 092.7684 13.83660123908017 OKEAN-4 1 23317U 94066A 11236.91379398 .00000364 00000-0 41620-4 0 07058 2 23317 082.5428 308.9654 0020048 251.1853 108.7188 14.83130072910733 NOAA-14 1 23455U 94089A 11236.96525173 .00000030 00000-0 39206-4 0 06040 2 23455 098.8493 318.9085 0010291 084.3108 275.9237 14.13829114858799 NOAA-15 1 25338U 98030A 11236.55791834 .00000184 00000-0 97476-4 0 09288 2 25338 098.6619 221.7838 0009678 252.9830 107.0277 14.24943823690461 RESURS 1 25394U 98043A 11236.95563679 -.00000000 00000-0 17472-4 0 08793 2 25394 098.3035 236.2013 0002376 046.7474 313.3909 14.24237331682093 FENGYUN1 1 25730U 99025A 11236.92574366 .00000670 00000-0 41281-3 0 04174 2 25730 098.8202 196.6228 0023754 118.7133 241.6425 14.08744065632742 OKEAN-0 1 25860U 99039A 11236.93701104 .00000115 00000-0 25015-4 0 04101 2 25860 097.8910 201.5177 0001664 090.1700 269.9699 14.73818442650782 NOAA-16 1 26536U 00055A 11236.56853402 .00000302 00000-0 18778-3 0 04105 2 26536 099.1364 268.4864 0010425 196.5780 163.5052 14.12640188563014 NOAA-17 1 27453U 02032A 11236.74057290 -.00000067 00000-0 -11129-4 0 03970 2 27453 098.3744 273.2866 0011002 312.1512 047.8730 14.24303133476416 NOAA-18 1 28654U 05018A 11236.78870345 .00000264 00000-0 17059-3 0 08765 2 28654 099.0015 188.1228 0013450 272.8702 087.0945 14.11504641322605 NOAA-19 1 33591U 09005A 11236.80117234 .00000130 00000-0 96160-4 0 00670 2 33591 098.8288 175.8120 0014552 139.0771 221.1477 14.11196071131061 HUBBLE 1 20580U 90037B 11237.24945397 .00000641 00000-0 35741-4 0 8243 2 20580 028.4708 285.2882 0003743 134.0987 225.9920 15.01464383970044 ISS 1 25544U 98067A 11237.83961142 .00006994 00000-0 89063-4 0 9503 2 25544 051.6392 170.1755 0013171 117.6731 339.7467 15.60529760731789 CO-58 1 28895U 05043F 11236.59306217 .00000228 00000-0 56660-4 0 09573 2 28895 097.9568 110.3036 0018340 009.8998 350.2575 14.60152446310229 FALCON 1 30776U 07006E 11236.58265720 .00001008 00000-0 72870-4 0 1566 2 30776 035.4348 291.0369 0002155 318.1143 041.9409 15.04847635245355 MAST 1 31126U 07012K 11236.93179625 .00000209 00000-0 57564-4 0 02432 2 31126 097.8936 260.2648 0093965 317.4548 041.9407 14.53789205231071 CAPE1 1 31130U 07012P 11236.56853633 .00000230 00000-0 63414-4 0 2552 2 31130 097.8973 256.5895 0101869 329.6901 029.8435 14.52445223230567 COMPASS 1 32787U 08021E 11237.73040179 .00000528 00000-0 72161-4 0 743 2 32787 097.8416 300.2349 0014909 313.1215 046.8775 14.82550834179862 AAUSAT2 1 32788U 08021F 11236.13303284 .00000517 00000-0 70459-4 0 00641 2 32788 097.8435 298.9149 0014382 318.5680 041.4454 14.82743027179644 DO-64 1 32789U 08021G 11237.73830954 .00001299 00000-0 16500-3 0 800 2 32789 097.8519 301.6315 0014320 310.9001 049.1032 14.83288903179892 CO-66 1 32791U 08021J 11236.68196758 .00000773 00000-0 10331-3 0 00670 2 32791 097.8437 299.1245 0015253 316.0206 043.9802 14.82222547179659 RS-30 1 32953U 08025A 11237.77029754 .00000010 00000-0 00000 0 0 252 2 32953 082.5028 119.4747 0017648 235.2245 124.7172 12.43014596147732 TACSAT-3 1 35001U 09028A 11236.93288600 .00015025 00000-0 25440-3 0 06850 2 35001 040.4521 114.6568 0021610 358.7370 001.3411 15.50903151127753 PHARMSAT 1 35002U 09028B 11236.86152087 .00011866 00000-0 20715-3 0 06356 2 35002 040.4673 113.3090 0023479 006.7456 353.3699 15.50144411127763 HAWKSAT1 1 35003U 09028C 11237.90820559 .00131700 00000-0 78690-3 0 7333 2 35003 040.4510 064.3184 0014843 021.1869 338.9572 15.76492918128392 CP6 1 35004U 09028D 11237.84862854 .00621898 17498-3 11844-2 0 7501 2 35004 040.4477 048.1071 0015918 355.5991 004.4696 15.99495272128555 METEOR-M 1 35865U 09049A 11237.67809765 .00000177 00000-0 10000-3 0 6694 2 35865 098.7004 291.8839 0004586 165.8872 194.2372 14.21841356100461 RS-38 1 35869U 09049E 11237.17701287 .00000177 00000-0 10000-3 0 6536 2 35869 098.6964 291.4215 0004373 181.7024 178.4114 14.22019414100408 ARISSAT1 1 37772U 98067CK 11237.82207817 .00028451 00000-0 32907-3 0 664 2 37772 051.6383 170.1645 0013542 124.5374 282.3294 15.61525208 3366 /EX